• In Russia
  • List of Countries
  • For 7 days
  • Water Temperature
  • Satellite Maps
  • Weather Map
  • Weather Widgets
  • user-avatar
    Login

    Hourly Weather Birzai

    Today, 23 April, Tuesday

    Time Temperature Precipitation Wind Pressure Humidity
    00:00 +11°C° 0 mm 1 mps 767 mmHg 57%
    01:00 +10°C° 0 mm 1 mps 767 mmHg 59%
    02:00 +8°C° 0 mm 2 mps 767 mmHg 61%
    03:00 +8°C° 0 mm 2 mps 767 mmHg 62%
    04:00 +8°C° 0 mm 2 mps 767 mmHg 64%
    05:00 +7°C° 0 mm 2 mps 767 mmHg 65%
    06:00 +9°C° 0 mm 2 mps 768 mmHg 62%
    07:00 +12°C° 0 mm 2 mps 768 mmHg 59%
    08:00 +13°C° 0 mm 2 mps 768 mmHg 55%
    09:00 +15°C° 0 mm 2 mps 768 mmHg 49%
    10:00 +17°C° 0 mm 2 mps 768 mmHg 43%
    11:00 +19°C° 0 mm 2 mps 768 mmHg 37%
    12:00 +19°C° 0 mm 3 mps 767 mmHg 36%
    13:00 +20°C° 0 mm 3 mps 767 mmHg 35%
    14:00 +20°C° 0 mm 3 mps 766 mmHg 33%
    15:00 +20°C° 0 mm 3 mps 766 mmHg 35%
    16:00 +20°C° 0 mm 3 mps 766 mmHg 37%
    17:00 +19°C° 0 mm 3 mps 766 mmHg 38%
    18:00 +17°C° 0 mm 3 mps 766 mmHg 44%
    19:00 +16°C° 0 mm 2 mps 766 mmHg 50%
    20:00 +14°C° 0 mm 2 mps 766 mmHg 56%
    21:00 +13°C° 0 mm 2 mps 766 mmHg 58%
    22:00 +12°C° 0 mm 2 mps 766 mmHg 60%
    23:00 +10°C° 0 mm 2 mps 766 mmHg 62%

    Tomorrow, 24 April, Wednesday

    Time Temperature Precipitation Wind Pressure Humidity
    00:00 +10°C° 0 mm 2 mps 766 mmHg 64%
    01:00 +10°C° 0 mm 2 mps 766 mmHg 65%
    02:00 +9°C° 0 mm 3 mps 766 mmHg 67%
    03:00 +9°C° 0 mm 3 mps 766 mmHg 68%
    04:00 +8°C° 0 mm 3 mps 766 mmHg 69%
    05:00 +8°C° 0 mm 3 mps 766 mmHg 71%
    06:00 +10°C° 0 mm 3 mps 766 mmHg 66%
    07:00 +11°C° 0 mm 3 mps 766 mmHg 61%
    08:00 +13°C° 0 mm 3 mps 766 mmHg 57%
    09:00 +15°C° 0 mm 4 mps 766 mmHg 50%
    10:00 +16°C° 0 mm 5 mps 766 mmHg 43%
    11:00 +19°C° 0 mm 6 mps 765 mmHg 36%
    12:00 +20°C° 0 mm 6 mps 765 mmHg 36%
    13:00 +20°C° 0 mm 6 mps 765 mmHg 36%
    14:00 +20°C° 0 mm 6 mps 765 mmHg 36%
    15:00 +20°C° 0 mm 6 mps 764 mmHg 38%
    16:00 +20°C° 0 mm 5 mps 764 mmHg 40%
    17:00 +20°C° 0 mm 5 mps 764 mmHg 42%
    18:00 +18°C° 0 mm 4 mps 763 mmHg 48%
    19:00 +16°C° 0 mm 3 mps 763 mmHg 54%
    20:00 +13°C° 0 mm 3 mps 763 mmHg 60%
    21:00 +13°C° 0 mm 3 mps 763 mmHg 62%
    22:00 +12°C° 0 mm 3 mps 764 mmHg 64%
    23:00 +11°C° 0 mm 3 mps 764 mmHg 67%

    Day after tomorrow, 25 April, Thursday

    Time Temperature Precipitation Wind Pressure Humidity
    00:00 +11°C° 0 mm 3 mps 764 mmHg 67%
    01:00 +10°C° 0 mm 3 mps 764 mmHg 68%
    02:00 +10°C° 0 mm 3 mps 764 mmHg 69%
    03:00 +10°C° 0 mm 3 mps 763 mmHg 70%
    04:00 +9°C° 0 mm 3 mps 763 mmHg 71%
    05:00 +9°C° 0 mm 3 mps 763 mmHg 72%
    06:00 +10°C° 0 mm 4 mps 763 mmHg 67%
    07:00 +12°C° 0 mm 4 mps 763 mmHg 63%
    08:00 +13°C° 0 mm 5 mps 763 mmHg 59%
    09:00 +15°C° 0 mm 5 mps 763 mmHg 55%
    10:00 +16°C° 0 mm 6 mps 762 mmHg 51%
    11:00 +19°C° 0 mm 6 mps 762 mmHg 48%
    12:00 +20°C° 0 mm 6 mps 762 mmHg 47%
    13:00 +20°C° 0 mm 5 mps 762 mmHg 47%
    14:00 +21°C° 0 mm 5 mps 761 mmHg 46%
    15:00 +21°C° 0 mm 5 mps 761 mmHg 47%
    16:00 +21°C° 0 mm 4 mps 761 mmHg 49%
    17:00 +21°C° 0 mm 4 mps 761 mmHg 51%
    18:00 +19°C° 0 mm 4 mps 761 mmHg 56%
    19:00 +17°C° 0 mm 3 mps 761 mmHg 62%
    20:00 +16°C° 0 mm 3 mps 761 mmHg 68%
    21:00 +14°C° 0 mm 3 mps 761 mmHg 69%
    22:00 +14°C° 0 mm 3 mps 761 mmHg 69%
    23:00 +13°C° 0 mm 3 mps 761 mmHg 70%

    26 April, Friday

    Time Temperature Precipitation Wind Pressure Humidity
    00:00 +13°C° 0 mm 3 mps 760 mmHg 72%
    01:00 +12°C° 0 mm 3 mps 760 mmHg 74%
    02:00 +12°C° 0 mm 2 mps 760 mmHg 77%
    03:00 +12°C° 0 mm 2 mps 760 mmHg 76%
    04:00 +12°C° 0 mm 2 mps 760 mmHg 76%
    05:00 +12°C° 0 mm 2 mps 760 mmHg 76%
    06:00 +12°C° 0 mm 3 mps 760 mmHg 74%
    07:00 +13°C° 0 mm 3 mps 759 mmHg 72%
    08:00 +14°C° 0 mm 4 mps 759 mmHg 70%
    09:00 +17°C° 0 mm 4 mps 759 mmHg 64%
    10:00 +18°C° 0 mm 4 mps 759 mmHg 59%
    11:00 +20°C° 0 mm 5 mps 759 mmHg 53%
    12:00 +21°C° 0 mm 5 mps 758 mmHg 51%
    13:00 +21°C° 0 mm 4 mps 758 mmHg 49%
    14:00 +22°C° 0 mm 4 mps 757 mmHg 47%
    15:00 +22°C° 0 mm 4 mps 757 mmHg 48%
    16:00 +22°C° 0 mm 4 mps 757 mmHg 48%
    17:00 +22°C° 0 mm 4 mps 756 mmHg 49%
    18:00 +21°C° 0 mm 4 mps 756 mmHg 56%
    19:00 +19°C° 0 mm 3 mps 756 mmHg 63%
    20:00 +17°C° 0 mm 3 mps 756 mmHg 70%
    21:00 +16°C° 0 mm 3 mps 756 mmHg 72%
    22:00 +16°C° 0 mm 3 mps 756 mmHg 74%
    23:00 +14°C° 0 mm 3 mps 755 mmHg 76%

    27 April, Saturday

    Time Temperature Precipitation Wind Pressure Humidity
    00:00 +14°C° 0 mm 3 mps 755 mmHg 78%
    01:00 +13°C° 0 mm 3 mps 755 mmHg 80%
    02:00 +13°C° 0 mm 3 mps 755 mmHg 81%
    03:00 +12°C° 0 mm 3 mps 754 mmHg 84%
    04:00 +12°C° 0 mm 3 mps 754 mmHg 87%
    05:00 +11°C° 0 mm 3 mps 754 mmHg 89%
    06:00 +13°C° 0.5 mm 3 mps 754 mmHg 88%
    07:00 +14°C° 0.5 mm 3 mps 753 mmHg 86%
    08:00 +16°C° 0.5 mm 3 mps 753 mmHg 85%
    09:00 +17°C° 0.2 mm 4 mps 753 mmHg 82%
    10:00 +19°C° 0.2 mm 4 mps 753 mmHg 79%
    11:00 +20°C° 0.2 mm 4 mps 753 mmHg 77%
    12:00 +21°C° 0.4 mm 4 mps 753 mmHg 73%
    13:00 +22°C° 0.4 mm 4 mps 752 mmHg 70%
    14:00 +23°C° 0.4 mm 4 mps 752 mmHg 67%
    15:00 +23°C° 0.8 mm 4 mps 752 mmHg 68%
    16:00 +23°C° 0.8 mm 4 mps 752 mmHg 68%
    17:00 +22°C° 0.8 mm 4 mps 752 mmHg 68%
    18:00 +21°C° 0.8 mm 3 mps 752 mmHg 75%
    19:00 +19°C° 0.8 mm 3 mps 752 mmHg 82%
    20:00 +18°C° 0.8 mm 2 mps 752 mmHg 90%
    21:00 +16°C° 0 mm 2 mps 752 mmHg 91%
    22:00 +15°C° 0 mm 2 mps 753 mmHg 93%
    23:00 +14°C° 0 mm 2 mps 753 mmHg 94%

    28 April, Sunday

    Time Temperature Precipitation Wind Pressure Humidity
    00:00 +13°C° 0 mm 2 mps 753 mmHg 95%
    01:00 +13°C° 0 mm 2 mps 753 mmHg 96%
    02:00 +12°C° 0 mm 2 mps 753 mmHg 97%
    03:00 +12°C° 0.1 mm 2 mps 753 mmHg 96%
    04:00 +12°C° 0.1 mm 2 mps 753 mmHg 96%
    05:00 +12°C° 0.1 mm 2 mps 753 mmHg 95%
    06:00 +13°C° 0 mm 2 mps 754 mmHg 93%
    07:00 +13°C° 0 mm 2 mps 754 mmHg 91%
    08:00 +14°C° 0 mm 2 mps 754 mmHg 89%
    09:00 +14°C° 0 mm 2 mps 755 mmHg 88%
    10:00 +15°C° 0 mm 2 mps 755 mmHg 86%
    11:00 +15°C° 0 mm 2 mps 755 mmHg 84%
    12:00 +15°C° 0.1 mm 2 mps 756 mmHg 85%
    13:00 +14°C° 0.1 mm 3 mps 756 mmHg 85%
    14:00 +14°C° 0.1 mm 3 mps 756 mmHg 86%
    15:00 +14°C° 0 mm 3 mps 756 mmHg 85%
    16:00 +14°C° 0 mm 4 mps 756 mmHg 84%
    17:00 +13°C° 0 mm 4 mps 757 mmHg 83%
    18:00 +13°C° 0 mm 4 mps 757 mmHg 84%
    19:00 +12°C° 0 mm 3 mps 757 mmHg 86%
    20:00 +11°C° 0 mm 3 mps 757 mmHg 88%
    21:00 +11°C° 0 mm 3 mps 757 mmHg 89%
    22:00 +10°C° 0 mm 3 mps 758 mmHg 91%
    23:00 +10°C° 0 mm 3 mps 758 mmHg 93%
    Show more